{"data":{"norad_id":59451,"intl_designator":"2024-066K","name":"CENTAURI-6","alt_names":[],"object_type":"PAYLOAD","status":"ACTIVE","operator":null,"country":"AUS","launch_date":"2024-04-07","launch_site_code":"AFETR","launch_vehicle":null,"mission":null,"orbit_class":"UNKNOWN","rcs_meters":null,"size_class":null,"mass_kg":null,"dimensions":null,"purposes":[],"wikipedia_slug":null,"has_3d_model":false,"image_url":null,"decayed_at":null,"tle_current":{"epoch":"2026-09-22T21:33:45.431136Z","epoch_age_seconds":56279,"freshness":"FRESH","line1":"1 59451U 24066K   26265.89844249  .00003151  00000+0  22612-3 0  9996","line2":"2 59451  45.6056 103.8725 0002034 242.3713 117.6965 15.06553446134854","mean_motion":15.06553446,"eccentricity":0.0002034,"inclination_deg":45.6056,"raan_deg":103.8725,"arg_perigee_deg":242.3713,"mean_anomaly_deg":117.6965,"bstar":0.00022612,"rev_number":13485,"period_min":95.582403918248,"perigee_km":545.33278771794,"apogee_km":548.14982821362,"semimajor_km":6924.8783079658,"source":"CELESTRAK","updated_at":"2026-09-23T09:00:19.376612Z"}}}